Location: Asheville, NC
(35.6000°N, 82.5500°W)
Time: 12:08:10
(UTC-04:00)

SPROUT - Visible Passes

Search period start: 19 June 2018 00:00
Search period end: 29 June 2018 00:00
Orbit: 602 x 614 km, 97.9° (Epoch: 19 June)

Date Brightness Start Highest point End Pass type
(mag) Time Alt. Az. Time Alt. Az. Time Alt. Az.
19 Jun ? 01:12:12 34° N 01:12:12 34° N 01:14:43 10° N visible
20 Jun ? 01:25:49 33° NNW 01:25:49 33° NNW 01:28:12 10° NNW visible
21 Jun ? 00:02:31 10° ENE 00:02:31 10° ENE 00:02:52 10° NE visible
21 Jun ? 01:39:26 29° NNW 01:39:26 29° NNW 01:41:37 10° NNW visible
22 Jun ? 00:16:08 14° NE 00:16:08 14° NE 00:17:48 10° NNE visible
22 Jun ? 01:53:02 23° NW 01:53:02 23° NW 01:54:55 10° NNW visible
23 Jun ? 00:29:45 19° NE 00:29:45 19° NE 00:31:54 10° NNE visible
23 Jun ? 02:06:39 18° NW 02:06:39 18° NW 02:08:05 10° NW visible
24 Jun ? 00:43:22 24° NE 00:43:22 24° NE 00:45:46 10° NNE visible
24 Jun ? 02:20:16 13° NW 02:20:16 13° NW 02:21:04 10° NW visible
25 Jun ? 00:56:59 30° NNE 00:56:59 30° NNE 00:59:29 10° N visible
26 Jun ? 01:10:36 33° N 01:10:36 33° N 01:13:04 10° N visible
27 Jun ? 01:24:13 33° N 01:24:13 33° N 01:26:35 10° NNW visible
28 Jun ? 01:37:49 29° NNW 01:37:49 29° NNW 01:39:59 10° NNW visible
